Weather History for PAPG - February, 2013

Change the Weather History Date:

Sunday, February 10, 2013

  Actual Average Record
Temperature  
Mean Temperature 42 °F -  
Max Temperature 44 °F 35 °F 48 °F (1991)
Min Temperature 39 °F 27 °F 8 °F (1985)
Degree Days  
Heating Degree Days 24    
Moisture  
Dew Point 37 °F    
Average Humidity 85    
Maximum Humidity 93    
Minimum Humidity 70    
Precipitation  
Precipitation 0.70 in - - ()
Sea Level Pressure  
Sea Level Pressure 30.07 in    
Wind  
Wind Speed 4 mph (South)    
Max Wind Speed 12 mph    
Max Gust Speed 18 mph    
Visibility 8 miles    
Events      
Averages and records for this station are not official NWS values.
T = Trace of Precipitation, MM = Missing Value Source: NWS Daily Summary

Daily Weather History Graph

Daily Weather History Graph

Search for Another Location

Airport or City:

Trip Planner

Search our weather history database for the weather conditions in past years. The results will help you decide how hot, cold, wet, or windy it might be!

Date:

Astronomy

Feb. 10, 2013 Rise Set
Actual Time 7:29 AM AKST 4:43 PM AKST
Civil Twilight 6:49 AM AKST 5:23 PM AKST
Nautical Twilight 6:04 AM AKST 6:08 PM AKST
Astronomical Twilight 5:20 AM AKST 6:52 PM AKST
Moon 7:07 AM AKST (2/10) 6:04 PM AKST (2/10)
Length of Visible Light 10h 34m
Length of Day
9h 13m
New Moon, 0% of the Moon is Illuminated
Feb 10
New Moon
Feb 17
First Quarter
Feb 25
Full
Mar 4
Last Quarter
Mar 11
New

Hourly Weather History & Observations

Time (AKST) Temp. Windchill Dew Point Humidity Pressure Visibility Wind Dir Wind Speed Gust Speed Precip Events Conditions
12:16 AM 42.8 °F 38.0 °F 39.2 °F 87% 30.14 in 9.0 mi East 8.1 mph - N/A   Overcast
12:36 AM 42.8 °F 38.6 °F 39.2 °F 87% 30.12 in 6.0 mi ENE 6.9 mph - N/A   Overcast
12:56 AM 42.8 °F 38.6 °F 37.4 °F 81% 30.11 in 9.0 mi NE 6.9 mph - N/A   Overcast
1:16 AM 42.8 °F - 37.4 °F 81% 30.10 in 10.0 mi Calm Calm - N/A   Overcast
1:36 AM 42.8 °F 41.1 °F 39.2 °F 87% 30.09 in 10.0 mi East 3.5 mph - 0.02 in   Overcast
1:56 AM 42.8 °F - 39.2 °F 87% 30.08 in 9.0 mi Calm Calm - 0.03 in   Overcast
2:16 AM 44.6 °F 40.2 °F 39.2 °F 81% 30.08 in 5.0 mi SSW 8.1 mph - 0.01 in   Overcast
3:16 AM 42.8 °F 40.1 °F 39.2 °F 87% 30.09 in 5.0 mi NW 4.6 mph - N/A   Unknown
3:36 AM 41.0 °F - 37.4 °F 87% 30.09 in 8.0 mi Calm Calm - N/A   Overcast
3:56 AM 41.0 °F - 39.2 °F 93% 30.07 in 6.0 mi Calm Calm - N/A   Overcast
4:16 AM 41.0 °F 39.0 °F 39.2 °F 93% 30.06 in 10.0 mi NNE 3.5 mph - N/A   Overcast
4:36 AM 41.0 °F 39.0 °F 37.4 °F 87% 30.07 in 10.0 mi WSW 3.5 mph - N/A   Overcast
4:56 AM 41.0 °F - 39.2 °F 93% 30.07 in 10.0 mi Calm Calm - 0.09 in   Overcast
5:16 AM 41.0 °F - 37.4 °F 87% 30.07 in 10.0 mi Calm Calm - 0.05 in   Overcast
5:36 AM 42.8 °F 39.3 °F 37.4 °F 81% 30.07 in 10.0 mi NNW 5.8 mph - 0.05 in   Overcast
5:56 AM 42.8 °F 39.3 °F 37.4 °F 81% 30.07 in 10.0 mi North 5.8 mph - 0.09 in   Overcast
6:16 AM 41.0 °F 39.0 °F 37.4 °F 87% 30.06 in 10.0 mi NNE 3.5 mph - 0.04 in   Overcast
6:36 AM 39.2 °F - 37.4 °F 93% 30.06 in 10.0 mi Calm Calm - 0.08 in   Overcast
6:56 AM 39.2 °F - 37.4 °F 93% 30.06 in 7.0 mi Calm Calm - 0.13 in   Overcast
7:16 AM 39.2 °F - 35.6 °F 87% 30.06 in 7.0 mi Calm Calm - 0.04 in   Overcast
7:36 AM 39.2 °F - 35.6 °F 87% 30.06 in 7.0 mi Calm Calm - 0.05 in   Overcast
7:56 AM 39.2 °F - 35.6 °F 87% 30.06 in 7.0 mi Calm Calm - 0.07 in   Overcast
8:16 AM 39.2 °F - 35.6 °F 87% 30.06 in 7.0 mi Calm Calm - N/A   Overcast
8:36 AM 39.2 °F - 35.6 °F 87% 30.05 in 7.0 mi Calm Calm - N/A   Overcast
8:56 AM 39.2 °F - 35.6 °F 87% 30.04 in 10.0 mi Calm Calm - N/A   Overcast
9:16 AM 39.2 °F 35.9 °F 37.4 °F 93% 30.04 in 10.0 mi SSW 4.6 mph - N/A   Overcast
9:36 AM 39.2 °F - 35.6 °F 87% 30.05 in 10.0 mi Calm Calm - N/A   Overcast
9:56 AM 39.2 °F - 37.4 °F 93% 30.05 in 7.0 mi Calm Calm - 0.01 in   Overcast
10:16 AM 39.2 °F - 37.4 °F 93% 30.06 in 7.0 mi Calm Calm - 0.01 in   Overcast
10:36 AM 39.2 °F - 37.4 °F 93% 30.07 in 7.0 mi Calm Calm - 0.03 in   Overcast
10:56 AM 39.2 °F - 37.4 °F 93% 30.08 in 7.0 mi Calm Calm - 0.05 in   Overcast
11:16 AM 39.2 °F 37.0 °F 37.4 °F 93% 30.08 in 7.0 mi ESE 3.5 mph - 0.01 in   Overcast
11:36 AM 39.2 °F - 37.4 °F 93% 30.09 in 7.0 mi Calm Calm - 0.04 in   Overcast
11:56 AM 39.2 °F 34.2 °F 37.4 °F 93% 30.08 in 7.0 mi ESE 6.9 mph - 0.07 in   Mostly Cloudy
12:16 PM 41.0 °F - 37.4 °F 87% 30.08 in 7.0 mi Calm Calm - N/A   Mostly Cloudy
12:36 PM 41.0 °F - 37.4 °F 87% 30.07 in 7.0 mi Calm Calm - N/A   Mostly Cloudy
12:56 PM 41.0 °F - 37.4 °F 87% 30.07 in 7.0 mi Calm Calm - 0.02 in   Overcast
1:16 PM 41.0 °F - 37.4 °F 87% 30.07 in 7.0 mi Calm Calm - N/A   Overcast
1:36 PM 42.8 °F 38.6 °F 35.6 °F 76% 30.07 in 7.0 mi South 6.9 mph - N/A   Overcast
1:56 PM 42.8 °F 39.3 °F 35.6 °F 76% 30.07 in 10.0 mi SSW 5.8 mph - N/A   Mostly Cloudy
2:16 PM 42.8 °F 37.0 °F 35.6 °F 76% 30.07 in 10.0 mi South 10.4 mph 17.3 mph N/A   Mostly Cloudy
2:36 PM 42.8 °F 37.0 °F 33.8 °F 70% 30.07 in 10.0 mi South 10.4 mph 16.1 mph N/A   Mostly Cloudy
2:56 PM 42.8 °F 37.5 °F 33.8 °F 70% 30.07 in 10.0 mi South 9.2 mph 17.3 mph N/A   Overcast
3:16 PM 42.8 °F 38.6 °F 35.6 °F 76% 30.07 in 10.0 mi South 6.9 mph - N/A   Overcast
3:36 PM 41.0 °F 35.2 °F 35.6 °F 81% 30.07 in 10.0 mi South 9.2 mph 18.4 mph 0.01 in   Overcast
3:56 PM 41.0 °F 36.4 °F 35.6 °F 81% 30.07 in 5.0 mi South 6.9 mph - 0.02 in   Mostly Cloudy
4:16 PM 41.0 °F 34.3 °F 35.6 °F 81% 30.06 in 5.0 mi South 11.5 mph 16.1 mph N/A   Mostly Cloudy
4:36 PM 41.0 °F 34.7 °F 33.8 °F 76% 30.06 in 5.0 mi South 10.4 mph - N/A   Mostly Cloudy
4:56 PM 41.0 °F 34.3 °F 33.8 °F 76% 30.07 in 5.0 mi South 11.5 mph - N/A   Overcast
5:16 PM 41.0 °F 36.4 °F 35.6 °F 81% 30.07 in 5.0 mi SSW 6.9 mph - 0.01 in   Overcast
5:36 PM 39.2 °F 33.0 °F 33.8 °F 81% 30.07 in 5.0 mi South 9.2 mph - 0.03 in   Overcast
5:56 PM 41.0 °F 35.8 °F 35.6 °F 81% 30.06 in 5.0 mi South 8.1 mph - 0.03 in   Overcast
6:16 PM 41.0 °F 36.4 °F 35.6 °F 81% 30.06 in 5.0 mi South 6.9 mph - N/A   Overcast
6:36 PM 41.0 °F 35.2 °F 33.8 °F 76% 30.05 in 5.0 mi SSE 9.2 mph - N/A   Overcast
6:56 PM 42.8 °F 39.3 °F 33.8 °F 70% 30.05 in 6.0 mi WSW 5.8 mph - N/A   Overcast
7:16 PM 39.2 °F 35.9 °F 35.6 °F 87% 30.06 in 6.0 mi South 4.6 mph - N/A   Overcast
7:36 PM 39.2 °F 33.6 °F 35.6 °F 87% 30.06 in 6.0 mi West 8.1 mph - 0.01 in   Overcast
7:56 PM 39.2 °F 35.0 °F 35.6 °F 87% 30.07 in 6.0 mi WSW 5.8 mph - 0.02 in   Overcast
8:16 PM 39.2 °F 35.9 °F 35.6 °F 87% 30.07 in 6.0 mi South 4.6 mph - 0.04 in   Overcast
8:36 PM 39.2 °F 35.0 °F 35.6 °F 87% 30.07 in 6.0 mi South 5.8 mph - 0.06 in   Overcast